Year,Month,Day,Hour,Minute,Value (Times are PST for temperature in C)
2011,10,16,00,00,7.40
2011,10,16,00,01,7.40
2011,10,16,00,02,7.40
2011,10,16,00,03,7.40
2011,10,16,00,04,7.40
2011,10,16,00,05,7.40
2011,10,16,00,06,7.40
2011,10,16,00,07,7.40
2011,10,16,00,08,7.40
2011,10,16,00,09,7.40
2011,10,16,00,10,7.40
2011,10,16,00,11,7.40
2011,10,16,00,12,7.40
2011,10,16,00,13,7.40
2011,10,16,00,14,7.40
2011,10,16,00,15,7.40
2011,10,16,00,16,7.30
2011,10,16,00,17,7.30
2011,10,16,00,18,7.30
2011,10,16,00,19,7.30
2011,10,16,00,20,7.30
2011,10,16,00,21,7.30
2011,10,16,00,22,7.30
2011,10,16,00,23,7.30
2011,10,16,00,24,7.30
2011,10,16,00,25,7.20
2011,10,16,00,26,7.20
2011,10,16,00,27,7.20
2011,10,16,00,28,7.20
2011,10,16,00,29,7.20
2011,10,16,00,30,7.20
2011,10,16,00,31,7.20
2011,10,16,00,32,7.20
2011,10,16,00,33,7.20
2011,10,16,00,34,7.20
2011,10,16,00,35,7.20
2011,10,16,00,36,7.20
2011,10,16,00,37,7.20
2011,10,16,00,38,7.20
2011,10,16,00,39,7.20
2011,10,16,00,40,7.20
2011,10,16,00,41,7.20
2011,10,16,00,42,7.20
2011,10,16,00,43,7.20
2011,10,16,00,44,7.20
2011,10,16,00,45,7.20
2011,10,16,00,46,7.20
2011,10,16,00,47,7.20
2011,10,16,00,48,7.20
2011,10,16,00,49,7.20
2011,10,16,00,50,7.20
2011,10,16,00,51,7.10
2011,10,16,00,52,7.10
2011,10,16,00,53,7.10
2011,10,16,00,54,7.10
2011,10,16,00,55,7.10
2011,10,16,00,56,7.00
2011,10,16,00,57,7.00
2011,10,16,00,58,7.00
2011,10,16,00,59,7.00
2011,10,16,01,00,7.00
2011,10,16,01,01,7.00
2011,10,16,01,02,7.00
2011,10,16,01,03,7.00
2011,10,16,01,04,7.00
2011,10,16,01,05,7.00
2011,10,16,01,06,6.90
2011,10,16,01,07,6.90
2011,10,16,01,08,6.90
2011,10,16,01,09,6.90
2011,10,16,01,10,6.90
2011,10,16,01,11,6.80
2011,10,16,01,12,6.80
2011,10,16,01,13,6.80
2011,10,16,01,14,6.80
2011,10,16,01,15,6.80
2011,10,16,01,16,6.80
2011,10,16,01,17,6.80
2011,10,16,01,18,6.80
2011,10,16,01,19,6.80
2011,10,16,01,20,6.80
2011,10,16,01,21,6.80
2011,10,16,01,22,6.80
2011,10,16,01,23,6.80
2011,10,16,01,24,6.80
2011,10,16,01,25,6.80
2011,10,16,01,26,6.80
2011,10,16,01,27,6.80
2011,10,16,01,28,6.80
2011,10,16,01,29,6.80
2011,10,16,01,30,6.80
2011,10,16,01,31,6.80
2011,10,16,01,32,6.70
2011,10,16,01,33,6.70
2011,10,16,01,34,6.70
2011,10,16,01,35,6.60
2011,10,16,01,36,6.60
2011,10,16,01,37,6.50
2011,10,16,01,38,6.40
2011,10,16,01,39,6.30
2011,10,16,01,40,6.20
2011,10,16,01,41,6.10
2011,10,16,01,42,6.00
2011,10,16,01,43,5.90
2011,10,16,01,44,5.80
2011,10,16,01,45,5.70
2011,10,16,01,46,5.70
2011,10,16,01,47,5.60
2011,10,16,01,48,5.50
2011,10,16,01,49,5.50
2011,10,16,01,50,5.40
2011,10,16,01,51,5.40
2011,10,16,01,52,5.40
2011,10,16,01,53,5.40
2011,10,16,01,54,5.30
2011,10,16,01,55,5.30
2011,10,16,01,56,5.30
2011,10,16,01,57,5.30
2011,10,16,01,58,5.20
2011,10,16,01,59,5.20
2011,10,16,02,00,5.20
2011,10,16,02,01,5.20
2011,10,16,02,02,5.20
2011,10,16,02,03,5.20
2011,10,16,02,04,5.20
2011,10,16,02,05,5.20
2011,10,16,02,06,5.20
2011,10,16,02,07,5.20
2011,10,16,02,08,5.30
2011,10,16,02,09,5.30
2011,10,16,02,10,5.30
2011,10,16,02,11,5.30
2011,10,16,02,12,5.30
2011,10,16,02,13,5.30
2011,10,16,02,14,5.30
2011,10,16,02,15,5.30
2011,10,16,02,16,5.30
2011,10,16,02,17,5.30
2011,10,16,02,18,5.30
2011,10,16,02,19,5.30
2011,10,16,02,20,5.30
2011,10,16,02,21,5.30
2011,10,16,02,22,5.40
2011,10,16,02,23,5.40
2011,10,16,02,24,5.30
2011,10,16,02,25,5.30
2011,10,16,02,26,5.30
2011,10,16,02,27,5.30
2011,10,16,02,28,5.30
2011,10,16,02,29,5.20
2011,10,16,02,30,5.20
2011,10,16,02,31,5.10
2011,10,16,02,32,5.10
2011,10,16,02,33,5.10
2011,10,16,02,34,5.10
2011,10,16,02,35,5.10
2011,10,16,02,36,5.10
2011,10,16,02,37,5.10
2011,10,16,02,38,5.10
2011,10,16,02,39,5.10
2011,10,16,02,40,5.10
2011,10,16,02,41,5.10
2011,10,16,02,42,5.10
2011,10,16,02,43,5.10
2011,10,16,02,44,5.10
2011,10,16,02,45,5.10
2011,10,16,02,46,5.10
2011,10,16,02,47,5.10
2011,10,16,02,48,5.10
2011,10,16,02,49,5.10
2011,10,16,02,50,5.10
2011,10,16,02,51,5.10
2011,10,16,02,52,5.10
2011,10,16,02,53,5.10
2011,10,16,02,54,5.10
2011,10,16,02,55,5.10
2011,10,16,02,56,5.10
2011,10,16,02,57,5.10
2011,10,16,02,58,5.10
2011,10,16,02,59,5.10
2011,10,16,03,00,5.00
2011,10,16,03,01,4.90
2011,10,16,03,02,4.90
2011,10,16,03,03,4.80
2011,10,16,03,04,4.80
2011,10,16,03,05,4.80
2011,10,16,03,06,4.70
2011,10,16,03,07,4.70
2011,10,16,03,08,4.70
2011,10,16,03,09,4.70
2011,10,16,03,10,4.70
2011,10,16,03,11,4.70
2011,10,16,03,12,4.70
2011,10,16,03,13,4.70
2011,10,16,03,14,4.70
2011,10,16,03,15,4.70
2011,10,16,03,16,4.70
2011,10,16,03,17,4.60
2011,10,16,03,18,4.70
2011,10,16,03,19,4.70
2011,10,16,03,20,4.70
2011,10,16,03,21,4.70
2011,10,16,03,22,4.70
2011,10,16,03,23,4.80
2011,10,16,03,24,4.80
2011,10,16,03,25,4.80
2011,10,16,03,26,4.80
2011,10,16,03,27,4.90
2011,10,16,03,28,4.90
2011,10,16,03,29,4.90
2011,10,16,03,30,4.90
2011,10,16,03,31,5.10
2011,10,16,03,32,5.10
2011,10,16,03,33,5.10
2011,10,16,03,34,5.10
2011,10,16,03,35,5.10
2011,10,16,03,36,5.20
2011,10,16,03,37,5.20
2011,10,16,03,38,5.20
2011,10,16,03,39,5.20
2011,10,16,03,40,5.20
2011,10,16,03,41,5.30
2011,10,16,03,42,5.30
2011,10,16,03,43,5.30
2011,10,16,03,44,5.30
2011,10,16,03,45,5.30
2011,10,16,03,46,5.30
2011,10,16,03,47,5.30
2011,10,16,03,48,5.30
2011,10,16,03,49,5.40
2011,10,16,03,50,5.40
2011,10,16,03,51,5.40
2011,10,16,03,52,5.40
2011,10,16,03,53,5.40
2011,10,16,03,54,5.40
2011,10,16,03,55,5.40
2011,10,16,03,56,5.50
2011,10,16,03,57,5.50
2011,10,16,03,58,5.40
2011,10,16,03,59,5.40
2011,10,16,04,00,5.40
2011,10,16,04,01,5.40
2011,10,16,04,02,5.40
2011,10,16,04,03,5.40
2011,10,16,04,04,5.40
2011,10,16,04,05,5.30
2011,10,16,04,06,5.30
2011,10,16,04,07,5.30
2011,10,16,04,08,5.30
2011,10,16,04,09,5.30
2011,10,16,04,10,5.40
2011,10,16,04,11,5.40
2011,10,16,04,12,5.50
2011,10,16,04,13,5.50
2011,10,16,04,14,5.50
2011,10,16,04,15,5.60
2011,10,16,04,16,5.60
2011,10,16,04,17,5.60
2011,10,16,04,18,5.60
2011,10,16,04,19,5.60
2011,10,16,04,20,5.60
2011,10,16,04,21,5.60
2011,10,16,04,22,5.70
2011,10,16,04,23,5.70
2011,10,16,04,24,5.70
2011,10,16,04,25,5.70
2011,10,16,04,26,5.70
2011,10,16,04,27,5.70
2011,10,16,04,28,5.70
2011,10,16,04,29,5.70
2011,10,16,04,30,5.70
2011,10,16,04,31,5.70
2011,10,16,04,32,5.70
2011,10,16,04,33,5.70
2011,10,16,04,34,5.70
2011,10,16,04,35,5.70
2011,10,16,04,36,5.70
2011,10,16,04,37,5.70
2011,10,16,04,38,5.70
2011,10,16,04,39,5.70
2011,10,16,04,40,5.70
2011,10,16,04,41,5.70
2011,10,16,04,42,5.70
2011,10,16,04,43,5.70
2011,10,16,04,44,5.70
2011,10,16,04,45,5.70
2011,10,16,04,46,5.70
2011,10,16,04,47,5.60
2011,10,16,04,48,5.60
2011,10,16,04,49,5.60
2011,10,16,04,50,5.60
2011,10,16,04,51,5.50
2011,10,16,04,52,5.50
2011,10,16,04,53,5.50
2011,10,16,04,54,5.50
2011,10,16,04,55,5.40
2011,10,16,04,56,5.40
2011,10,16,04,57,5.40
2011,10,16,04,58,5.40
2011,10,16,04,59,5.40
2011,10,16,05,00,5.40
2011,10,16,05,01,5.40
2011,10,16,05,02,5.40
2011,10,16,05,03,5.40
2011,10,16,05,04,5.40
2011,10,16,05,05,5.40
2011,10,16,05,06,5.40
2011,10,16,05,07,5.40
2011,10,16,05,08,5.30
2011,10,16,05,09,5.40
2011,10,16,05,10,5.40
2011,10,16,05,11,5.40
2011,10,16,05,12,5.40
2011,10,16,05,13,5.40
2011,10,16,05,14,5.40
2011,10,16,05,15,5.40
2011,10,16,05,16,5.30
2011,10,16,05,17,5.30
2011,10,16,05,18,5.30
2011,10,16,05,19,5.30
2011,10,16,05,20,5.30
2011,10,16,05,21,5.30
2011,10,16,05,22,5.30
2011,10,16,05,23,5.30
2011,10,16,05,24,5.40
2011,10,16,05,25,5.40
2011,10,16,05,26,5.50
2011,10,16,05,27,5.50
2011,10,16,05,28,5.50
2011,10,16,05,29,5.50
2011,10,16,05,30,5.50
2011,10,16,05,31,5.60
2011,10,16,05,32,5.60
2011,10,16,05,33,5.60
2011,10,16,05,34,5.60
2011,10,16,05,35,5.60
2011,10,16,05,36,5.60
2011,10,16,05,37,5.60
2011,10,16,05,38,5.60
2011,10,16,05,39,5.60
2011,10,16,05,40,5.50
2011,10,16,05,41,5.50
2011,10,16,05,42,5.50
2011,10,16,05,43,5.50
2011,10,16,05,44,5.50
2011,10,16,05,45,5.50
2011,10,16,05,46,5.50
2011,10,16,05,47,5.60
2011,10,16,05,48,5.60
2011,10,16,05,49,5.60
2011,10,16,05,50,5.60
2011,10,16,05,51,5.60
2011,10,16,05,52,5.70
2011,10,16,05,53,5.70
2011,10,16,05,54,5.70
2011,10,16,05,55,5.70
2011,10,16,05,56,5.70
2011,10,16,05,57,5.70
2011,10,16,05,58,5.70
2011,10,16,05,59,5.70
2011,10,16,06,00,5.70
2011,10,16,06,01,5.70
2011,10,16,06,02,5.70
2011,10,16,06,03,5.70
2011,10,16,06,04,5.70
2011,10,16,06,05,5.70
2011,10,16,06,06,5.70
2011,10,16,06,07,5.70
2011,10,16,06,08,5.70
2011,10,16,06,09,5.60
2011,10,16,06,10,5.60
2011,10,16,06,11,5.60
2011,10,16,06,12,5.50
2011,10,16,06,13,5.50
2011,10,16,06,14,5.50
2011,10,16,06,15,5.50
2011,10,16,06,16,5.50
2011,10,16,06,17,5.50
2011,10,16,06,18,5.50
2011,10,16,06,19,5.50
2011,10,16,06,20,5.50
2011,10,16,06,21,5.60
2011,10,16,06,22,5.60
2011,10,16,06,23,5.70
2011,10,16,06,24,5.70
2011,10,16,06,25,5.70
2011,10,16,06,26,5.70
2011,10,16,06,27,5.70
2011,10,16,06,28,5.80
2011,10,16,06,29,5.80
2011,10,16,06,30,5.80
2011,10,16,06,31,5.90
2011,10,16,06,32,5.90
2011,10,16,06,33,5.90
2011,10,16,06,34,6.00
2011,10,16,06,35,6.00
2011,10,16,06,36,6.10
2011,10,16,06,37,6.10
2011,10,16,06,38,6.10
2011,10,16,06,39,6.10
2011,10,16,06,40,6.20
2011,10,16,06,41,6.20
2011,10,16,06,42,6.20
2011,10,16,06,43,6.20
2011,10,16,06,44,6.20
2011,10,16,06,45,6.20
2011,10,16,06,46,6.20
2011,10,16,06,47,6.20
2011,10,16,06,48,6.10
2011,10,16,06,49,6.10
2011,10,16,06,50,6.10
2011,10,16,06,51,6.10
2011,10,16,06,52,6.00
2011,10,16,06,53,6.00
2011,10,16,06,54,6.00
2011,10,16,06,55,5.90
2011,10,16,06,56,5.90
2011,10,16,06,57,5.90
2011,10,16,06,58,5.90
2011,10,16,06,59,5.90
2011,10,16,07,00,6.00
2011,10,16,07,01,6.00
2011,10,16,07,02,6.00
2011,10,16,07,03,6.00
2011,10,16,07,04,6.00
2011,10,16,07,05,6.00
2011,10,16,07,06,6.10
2011,10,16,07,07,6.10
2011,10,16,07,08,6.10
2011,10,16,07,09,6.10
2011,10,16,07,10,6.10
2011,10,16,07,11,6.10
2011,10,16,07,12,6.20
2011,10,16,07,13,6.20
2011,10,16,07,14,6.20
2011,10,16,07,15,6.20
2011,10,16,07,16,6.20
2011,10,16,07,17,6.20
2011,10,16,07,18,6.20
2011,10,16,07,19,6.20
2011,10,16,07,20,6.20
2011,10,16,07,21,6.20
2011,10,16,07,22,6.20
2011,10,16,07,23,6.20
2011,10,16,07,24,6.20
2011,10,16,07,25,6.10
2011,10,16,07,26,6.10
2011,10,16,07,27,6.00
2011,10,16,07,28,6.00
2011,10,16,07,29,5.90
2011,10,16,07,30,5.90
2011,10,16,07,31,5.80
2011,10,16,07,32,5.80
2011,10,16,07,33,5.70
2011,10,16,07,34,5.70
2011,10,16,07,35,5.70
2011,10,16,07,36,5.70
2011,10,16,07,37,5.70
2011,10,16,07,38,5.70
2011,10,16,07,39,5.70
2011,10,16,07,40,5.70
2011,10,16,07,41,5.70
2011,10,16,07,42,5.70
2011,10,16,07,43,5.70
2011,10,16,07,44,5.70
2011,10,16,07,45,5.80
2011,10,16,07,46,5.80
2011,10,16,07,47,5.80
2011,10,16,07,48,5.80
2011,10,16,07,49,5.80
2011,10,16,07,50,5.80
2011,10,16,07,51,5.80
2011,10,16,07,52,5.80
2011,10,16,07,53,5.80
2011,10,16,07,54,5.80
2011,10,16,07,55,5.80
2011,10,16,07,56,5.80
2011,10,16,07,57,5.80
2011,10,16,07,58,5.80
2011,10,16,07,59,5.80
2011,10,16,08,00,5.80
2011,10,16,08,01,5.80
2011,10,16,08,02,5.80
2011,10,16,08,03,5.80
2011,10,16,08,04,5.80
2011,10,16,08,05,5.80
2011,10,16,08,06,5.80
2011,10,16,08,07,5.80
2011,10,16,08,08,5.80
2011,10,16,08,09,5.80
2011,10,16,08,10,5.80
2011,10,16,08,11,5.80
2011,10,16,08,12,5.90
2011,10,16,08,13,5.90
2011,10,16,08,14,5.90
2011,10,16,08,15,5.90
2011,10,16,08,16,5.90
2011,10,16,08,17,5.90
2011,10,16,08,18,6.00
2011,10,16,08,19,6.00
2011,10,16,08,20,6.00
2011,10,16,08,21,6.00
2011,10,16,08,22,6.00
2011,10,16,08,23,6.00
2011,10,16,08,24,6.10
2011,10,16,08,25,6.10
2011,10,16,08,26,6.10
2011,10,16,08,27,6.10
2011,10,16,08,28,6.20
2011,10,16,08,29,6.20
2011,10,16,08,30,6.20
2011,10,16,08,31,6.20
2011,10,16,08,32,6.20
2011,10,16,08,33,6.30
2011,10,16,08,34,6.30
2011,10,16,08,35,6.30
2011,10,16,08,36,6.40
2011,10,16,08,37,6.40
2011,10,16,08,38,6.40
2011,10,16,08,39,6.40
2011,10,16,08,40,6.40
2011,10,16,08,41,6.40
2011,10,16,08,42,6.60
2011,10,16,08,43,6.60
2011,10,16,08,44,6.60
2011,10,16,08,45,6.60
2011,10,16,08,46,6.60
2011,10,16,08,47,6.70
2011,10,16,08,48,6.70
2011,10,16,08,49,6.70
2011,10,16,08,50,6.80
2011,10,16,08,51,6.80
2011,10,16,08,52,6.80
2011,10,16,08,53,6.80
2011,10,16,08,54,6.80
2011,10,16,08,55,6.90
2011,10,16,08,56,6.90
2011,10,16,08,57,7.00
2011,10,16,08,58,7.00
2011,10,16,08,59,7.00
2011,10,16,09,00,7.10
2011,10,16,09,01,7.10
2011,10,16,09,02,7.20
2011,10,16,09,03,7.20
2011,10,16,09,04,7.30
2011,10,16,09,05,7.30
2011,10,16,09,06,7.30
2011,10,16,09,07,7.30
2011,10,16,09,08,7.30
2011,10,16,09,09,7.40
2011,10,16,09,10,7.40
2011,10,16,09,11,7.40
2011,10,16,09,12,7.50
2011,10,16,09,13,7.50
2011,10,16,09,14,7.50
2011,10,16,09,15,7.60
2011,10,16,09,16,7.60
2011,10,16,09,17,7.60
2011,10,16,09,18,7.60
2011,10,16,09,19,7.60
2011,10,16,09,20,7.60
2011,10,16,09,21,7.70
2011,10,16,09,22,7.70
2011,10,16,09,23,7.70
2011,10,16,09,24,7.70
2011,10,16,09,25,7.70
2011,10,16,09,26,7.80
2011,10,16,09,27,7.80
2011,10,16,09,28,7.80
2011,10,16,09,29,7.80
2011,10,16,09,30,7.80
2011,10,16,09,31,7.90
2011,10,16,09,32,7.90
2011,10,16,09,33,7.90
2011,10,16,09,34,7.90
2011,10,16,09,35,7.90
2011,10,16,09,36,8.00
2011,10,16,09,37,8.00
2011,10,16,09,38,8.00
2011,10,16,09,39,8.00
2011,10,16,09,40,8.10
2011,10,16,09,41,8.10
2011,10,16,09,42,8.10
2011,10,16,09,43,8.10
2011,10,16,09,44,8.10
2011,10,16,09,45,8.10
2011,10,16,09,46,8.10
2011,10,16,09,47,8.10
2011,10,16,09,48,8.10
2011,10,16,09,49,8.10
2011,10,16,09,50,8.10
2011,10,16,09,51,8.10
2011,10,16,09,52,8.20
2011,10,16,09,53,8.20
2011,10,16,09,54,8.20
2011,10,16,09,55,8.20
2011,10,16,09,56,8.20
2011,10,16,09,57,8.20
2011,10,16,09,58,8.20
2011,10,16,09,59,8.20
2011,10,16,10,00,8.20
2011,10,16,10,01,8.30
2011,10,16,10,02,8.30
2011,10,16,10,03,8.30
2011,10,16,10,04,8.30
2011,10,16,10,05,8.30
2011,10,16,10,06,8.40
2011,10,16,10,07,8.40
2011,10,16,10,08,8.40
2011,10,16,10,09,8.40
2011,10,16,10,10,8.40
2011,10,16,10,11,8.40
2011,10,16,10,12,8.40
2011,10,16,10,13,8.40
2011,10,16,10,14,8.50
2011,10,16,10,15,8.50
2011,10,16,10,16,8.50
2011,10,16,10,17,8.50
2011,10,16,10,18,8.50
2011,10,16,10,19,8.50
2011,10,16,10,20,8.50
2011,10,16,10,21,8.50
2011,10,16,10,22,8.60
2011,10,16,10,23,8.60
2011,10,16,10,24,8.60
2011,10,16,10,25,8.70
2011,10,16,10,26,8.70
2011,10,16,10,27,8.70
2011,10,16,10,28,8.70
2011,10,16,10,29,8.70
2011,10,16,10,30,8.70
2011,10,16,10,31,8.80
2011,10,16,10,32,8.80
2011,10,16,10,33,8.70
2011,10,16,10,34,8.70
2011,10,16,10,35,8.70
2011,10,16,10,36,8.70
2011,10,16,10,37,8.70
2011,10,16,10,38,8.70
2011,10,16,10,39,8.60
2011,10,16,10,40,8.60
2011,10,16,10,41,8.60
2011,10,16,10,42,8.60
2011,10,16,10,43,8.60
2011,10,16,10,44,8.60
2011,10,16,10,45,8.60
2011,10,16,10,46,8.60
2011,10,16,10,47,8.60
2011,10,16,10,48,8.60
2011,10,16,10,49,8.60
2011,10,16,10,50,8.60
2011,10,16,10,51,8.60
2011,10,16,10,52,8.60
2011,10,16,10,53,8.60
2011,10,16,10,54,8.60
2011,10,16,10,55,8.60
2011,10,16,10,56,8.60
2011,10,16,10,57,8.50
2011,10,16,10,58,8.50
2011,10,16,10,59,8.50
2011,10,16,11,00,8.60
2011,10,16,11,01,8.60
2011,10,16,11,02,8.50
2011,10,16,11,03,8.50
2011,10,16,11,04,8.50
2011,10,16,11,05,8.50
2011,10,16,11,06,8.60
2011,10,16,11,07,8.60
2011,10,16,11,08,8.60
2011,10,16,11,09,8.70
2011,10,16,11,10,8.70
2011,10,16,11,11,8.70
2011,10,16,11,12,8.70
2011,10,16,11,13,8.70
2011,10,16,11,14,8.70
2011,10,16,11,15,8.70
2011,10,16,11,16,8.70
2011,10,16,11,17,8.70
2011,10,16,11,18,8.70
2011,10,16,11,19,8.70
2011,10,16,11,20,8.70
2011,10,16,11,21,8.70
2011,10,16,11,22,8.70
2011,10,16,11,23,8.70
2011,10,16,11,24,8.70
2011,10,16,11,25,8.70
2011,10,16,11,26,8.70
2011,10,16,11,27,8.70
2011,10,16,11,28,8.70
2011,10,16,11,29,8.70
2011,10,16,11,30,8.70
2011,10,16,11,31,8.70
2011,10,16,11,32,8.70
2011,10,16,11,33,8.80
2011,10,16,11,34,8.80
2011,10,16,11,35,8.80
2011,10,16,11,36,8.80
2011,10,16,11,37,8.90
2011,10,16,11,38,8.90
2011,10,16,11,39,9.00
2011,10,16,11,40,9.10
2011,10,16,11,41,9.10
2011,10,16,11,42,9.20
2011,10,16,11,43,9.20
2011,10,16,11,44,9.20
2011,10,16,11,45,9.20
2011,10,16,11,46,9.20
2011,10,16,11,47,9.30
2011,10,16,11,48,9.30
2011,10,16,11,49,9.30
2011,10,16,11,50,9.40
2011,10,16,11,51,9.50
2011,10,16,11,52,9.50
2011,10,16,11,53,9.60
2011,10,16,11,54,9.60
2011,10,16,11,55,9.60
2011,10,16,11,56,9.60
2011,10,16,11,57,9.70
2011,10,16,11,58,9.60
2011,10,16,11,59,9.50
2011,10,16,12,00,9.50
2011,10,16,12,01,9.50
2011,10,16,12,02,9.60
2011,10,16,12,03,9.60
2011,10,16,12,04,9.60
2011,10,16,12,05,9.60
2011,10,16,12,06,9.70
2011,10,16,12,07,9.70
2011,10,16,12,08,9.70
2011,10,16,12,09,9.70
2011,10,16,12,10,9.70
2011,10,16,12,11,9.70
2011,10,16,12,12,9.80
2011,10,16,12,13,9.80
2011,10,16,12,14,9.90
2011,10,16,12,15,9.90
2011,10,16,12,16,9.90
2011,10,16,12,17,9.90
2011,10,16,12,18,9.90
2011,10,16,12,19,9.90
2011,10,16,12,20,9.90
2011,10,16,12,21,9.90
2011,10,16,12,22,9.80
2011,10,16,12,23,9.80
2011,10,16,12,24,9.80
2011,10,16,12,25,9.90
2011,10,16,12,26,9.90
2011,10,16,12,27,9.90
2011,10,16,12,28,9.90
2011,10,16,12,29,9.90
2011,10,16,12,30,9.90
2011,10,16,12,31,10.00
2011,10,16,12,32,9.90
2011,10,16,12,33,9.90
2011,10,16,12,34,9.90
2011,10,16,12,35,9.80
2011,10,16,12,36,9.90
2011,10,16,12,37,9.90
2011,10,16,12,38,9.90
2011,10,16,12,39,9.90
2011,10,16,12,40,9.80
2011,10,16,12,41,9.70
2011,10,16,12,42,9.70
2011,10,16,12,43,9.70
2011,10,16,12,44,9.70
2011,10,16,12,45,9.70
2011,10,16,12,46,9.70
2011,10,16,12,47,9.70
2011,10,16,12,48,9.70
2011,10,16,12,49,9.70
2011,10,16,12,50,9.70
2011,10,16,12,51,9.60
2011,10,16,12,52,9.50
2011,10,16,12,53,9.50
2011,10,16,12,54,9.50
2011,10,16,12,55,9.40
2011,10,16,12,56,9.40
2011,10,16,12,57,9.30
2011,10,16,12,58,9.30
2011,10,16,12,59,9.40
2011,10,16,13,00,9.40
2011,10,16,13,01,9.50
2011,10,16,13,02,9.50
2011,10,16,13,03,9.60
2011,10,16,13,04,9.60
2011,10,16,13,05,9.70
2011,10,16,13,06,9.70
2011,10,16,13,07,9.70
2011,10,16,13,08,9.70
2011,10,16,13,09,9.70
2011,10,16,13,10,9.60
2011,10,16,13,11,9.60
2011,10,16,13,12,9.50
2011,10,16,13,13,9.50
2011,10,16,13,14,9.40
2011,10,16,13,15,9.30
2011,10,16,13,16,9.40
2011,10,16,13,17,9.40
2011,10,16,13,18,9.40
2011,10,16,13,19,9.50
2011,10,16,13,20,9.60
2011,10,16,13,21,9.60
2011,10,16,13,22,9.50
2011,10,16,13,23,9.50
2011,10,16,13,24,9.50
2011,10,16,13,25,9.50
2011,10,16,13,26,9.50
2011,10,16,13,27,9.60
2011,10,16,13,28,9.60
2011,10,16,13,29,9.60
2011,10,16,13,30,9.60
2011,10,16,13,31,9.60
2011,10,16,13,32,9.70
2011,10,16,13,33,9.60
2011,10,16,13,34,9.70
2011,10,16,13,35,9.70
2011,10,16,13,36,9.70
2011,10,16,13,37,9.70
2011,10,16,13,38,9.70
2011,10,16,13,39,9.80
2011,10,16,13,40,9.90
2011,10,16,13,41,9.70
2011,10,16,13,42,9.70
2011,10,16,13,43,9.70
2011,10,16,13,44,9.70
2011,10,16,13,45,9.70
2011,10,16,13,46,9.70
2011,10,16,13,47,9.70
2011,10,16,13,48,9.70
2011,10,16,13,49,9.80
2011,10,16,13,50,9.80
2011,10,16,13,51,9.90
2011,10,16,13,52,9.90
2011,10,16,13,53,9.90
2011,10,16,13,54,9.80
2011,10,16,13,55,9.80
2011,10,16,13,56,9.80
2011,10,16,13,57,9.80
2011,10,16,13,58,9.90
2011,10,16,13,59,9.90
2011,10,16,14,00,9.90
2011,10,16,14,01,10.00
2011,10,16,14,02,10.10
2011,10,16,14,03,10.10
2011,10,16,14,04,10.00
2011,10,16,14,05,9.90
2011,10,16,14,06,9.90
2011,10,16,14,07,9.90
2011,10,16,14,08,9.90
2011,10,16,14,09,9.90
2011,10,16,14,10,9.90
2011,10,16,14,11,10.00
2011,10,16,14,12,10.10
2011,10,16,14,13,10.10
2011,10,16,14,14,10.10
2011,10,16,14,15,10.10
2011,10,16,14,16,10.10
2011,10,16,14,17,9.90
2011,10,16,14,18,10.00
2011,10,16,14,19,10.10
2011,10,16,14,20,10.10
2011,10,16,14,21,10.00
2011,10,16,14,22,9.90
2011,10,16,14,23,9.90
2011,10,16,14,24,9.90
2011,10,16,14,25,9.90
2011,10,16,14,26,9.90
2011,10,16,14,27,9.90
2011,10,16,14,28,9.90
2011,10,16,14,29,9.90
2011,10,16,14,30,9.90
2011,10,16,14,31,9.80
2011,10,16,14,32,9.70
2011,10,16,14,33,9.70
2011,10,16,14,34,9.80
2011,10,16,14,35,9.90
2011,10,16,14,36,10.00
2011,10,16,14,37,10.10
2011,10,16,14,38,10.10
2011,10,16,14,39,10.10
2011,10,16,14,40,10.20
2011,10,16,14,41,10.20
2011,10,16,14,42,10.20
2011,10,16,14,43,10.30
2011,10,16,14,44,10.20
2011,10,16,14,45,10.20
2011,10,16,14,46,10.20
2011,10,16,14,47,10.20
2011,10,16,14,48,10.30
2011,10,16,14,49,10.30
2011,10,16,14,50,10.40
2011,10,16,14,51,10.40
2011,10,16,14,52,10.40
2011,10,16,14,53,10.40
2011,10,16,14,54,10.40
2011,10,16,14,55,10.50
2011,10,16,14,56,10.60
2011,10,16,14,57,10.50
2011,10,16,14,58,10.40
2011,10,16,14,59,10.40
2011,10,16,15,00,10.40
2011,10,16,15,01,10.50
2011,10,16,15,02,10.60
2011,10,16,15,03,10.60
2011,10,16,15,04,10.60
2011,10,16,15,05,10.60
2011,10,16,15,06,10.60
2011,10,16,15,07,10.60
2011,10,16,15,08,10.60
2011,10,16,15,09,10.60
2011,10,16,15,10,10.50
2011,10,16,15,11,10.40
2011,10,16,15,12,10.40
2011,10,16,15,13,10.40
2011,10,16,15,14,10.60
2011,10,16,15,15,10.60
2011,10,16,15,16,10.50
2011,10,16,15,17,10.40
2011,10,16,15,18,10.40
2011,10,16,15,19,10.40
2011,10,16,15,20,10.30
2011,10,16,15,21,10.30
2011,10,16,15,22,10.30
2011,10,16,15,23,10.30
2011,10,16,15,24,10.30
2011,10,16,15,25,10.30
2011,10,16,15,26,10.20
2011,10,16,15,27,10.20
2011,10,16,15,28,10.30
2011,10,16,15,29,10.30
2011,10,16,15,30,10.30
2011,10,16,15,31,10.20
2011,10,16,15,32,10.20
2011,10,16,15,33,10.10
2011,10,16,15,34,10.10
2011,10,16,15,35,10.10
2011,10,16,15,36,10.10
2011,10,16,15,37,10.10
2011,10,16,15,38,10.00
2011,10,16,15,39,10.00
2011,10,16,15,40,10.10
2011,10,16,15,41,10.10
2011,10,16,15,42,10.10
2011,10,16,15,43,10.10
2011,10,16,15,44,10.10
2011,10,16,15,45,10.20
2011,10,16,15,46,10.30
2011,10,16,15,47,10.30
2011,10,16,15,48,10.40
2011,10,16,15,49,10.40
2011,10,16,15,50,10.40
2011,10,16,15,51,10.50
2011,10,16,15,52,10.60
2011,10,16,15,53,10.70
2011,10,16,15,54,10.80
2011,10,16,15,55,10.90
2011,10,16,15,56,10.90
2011,10,16,15,57,10.90
2011,10,16,15,58,10.90
2011,10,16,15,59,10.90
2011,10,16,16,00,10.90
2011,10,16,16,01,10.90
2011,10,16,16,02,11.00
2011,10,16,16,03,11.10
2011,10,16,16,04,11.10
2011,10,16,16,05,11.20
2011,10,16,16,06,11.30
2011,10,16,16,07,11.40
2011,10,16,16,08,11.40
2011,10,16,16,09,11.40
2011,10,16,16,10,11.40
2011,10,16,16,11,11.40
2011,10,16,16,12,11.40
2011,10,16,16,13,11.40
2011,10,16,16,14,11.40
2011,10,16,16,15,11.40
2011,10,16,16,16,11.40
2011,10,16,16,17,11.40
2011,10,16,16,18,11.40
2011,10,16,16,19,11.40
2011,10,16,16,20,11.40
2011,10,16,16,21,11.30
2011,10,16,16,22,11.20
2011,10,16,16,23,11.20
2011,10,16,16,24,11.20
2011,10,16,16,25,11.20
2011,10,16,16,26,11.20
2011,10,16,16,27,11.20
2011,10,16,16,28,11.20
2011,10,16,16,29,11.10
2011,10,16,16,30,11.10
2011,10,16,16,31,11.10
2011,10,16,16,32,11.20
2011,10,16,16,33,11.20
2011,10,16,16,34,11.30
2011,10,16,16,35,11.30
2011,10,16,16,36,11.20
2011,10,16,16,37,11.20
2011,10,16,16,38,11.10
2011,10,16,16,39,11.10
2011,10,16,16,40,11.10
2011,10,16,16,41,11.10
2011,10,16,16,42,11.10
2011,10,16,16,43,11.10
2011,10,16,16,44,11.10
2011,10,16,16,45,10.90
2011,10,16,16,46,10.90
2011,10,16,16,47,10.90
2011,10,16,16,48,10.80
2011,10,16,16,49,10.70
2011,10,16,16,50,10.70
2011,10,16,16,51,10.70
2011,10,16,16,52,10.60
2011,10,16,16,53,10.70
2011,10,16,16,54,10.70
2011,10,16,16,55,10.70
2011,10,16,16,56,10.80
2011,10,16,16,57,10.80
2011,10,16,16,58,10.90
2011,10,16,16,59,10.90
2011,10,16,17,00,10.90
2011,10,16,17,01,10.80
2011,10,16,17,02,10.80
2011,10,16,17,03,10.80
2011,10,16,17,04,10.80
2011,10,16,17,05,10.70
2011,10,16,17,06,10.70
2011,10,16,17,07,10.60
2011,10,16,17,08,10.60
2011,10,16,17,09,10.60
2011,10,16,17,10,10.50
2011,10,16,17,11,10.40
2011,10,16,17,12,10.30
2011,10,16,17,13,10.30
2011,10,16,17,14,10.20
2011,10,16,17,15,10.10
2011,10,16,17,16,10.10
2011,10,16,17,17,10.10
2011,10,16,17,18,10.10
2011,10,16,17,19,10.00
2011,10,16,17,20,9.90
2011,10,16,17,21,9.90
2011,10,16,17,22,9.90
2011,10,16,17,23,9.90
2011,10,16,17,24,9.90
2011,10,16,17,25,9.90
2011,10,16,17,26,9.90
2011,10,16,17,27,9.90
2011,10,16,17,28,9.80
2011,10,16,17,29,9.80
2011,10,16,17,30,9.80
2011,10,16,17,31,9.80
2011,10,16,17,32,9.80
2011,10,16,17,33,9.80
2011,10,16,17,34,9.80
2011,10,16,17,35,9.80
2011,10,16,17,36,9.80
2011,10,16,17,37,9.90
2011,10,16,17,38,9.90
2011,10,16,17,39,9.90
2011,10,16,17,40,9.90
2011,10,16,17,41,9.90
2011,10,16,17,42,9.90
2011,10,16,17,43,9.90
2011,10,16,17,44,9.90
2011,10,16,17,45,9.90
2011,10,16,17,46,9.90
2011,10,16,17,47,9.90
2011,10,16,17,48,9.90
2011,10,16,17,49,9.90
2011,10,16,17,50,9.90
2011,10,16,17,51,9.90
2011,10,16,17,52,9.90
2011,10,16,17,53,9.90
2011,10,16,17,54,9.90
2011,10,16,17,55,9.90
2011,10,16,17,56,9.90
2011,10,16,17,57,9.90
2011,10,16,17,58,9.90